Location: ??????
(55.6130°N, 37.7882°E)
Time: 05:05:20
(UTC+00:00)

BlueWalker 3 - Visible Passes

Search period start: 21 June 2024 00:00
Search period end: 01 July 2024 00:00
Orbit: 480 x 494 km, 53.2° (Epoch: 20 June)

Date Brightness Start Highest point End Pass type
(mag) Time Alt. Az. Time Alt. Az. Time Alt. Az.
21 Jun 1.8 20:37:39 10° WSW 20:41:21 61° S 20:45:03 10° E visible
21 Jun 2.1 22:15:42 10° W 22:19:16 44° SSW 22:22:51 10° SE visible
22 Jun 1.8 20:11:57 10° WSW 20:15:39 60° S 20:19:21 10° E visible
22 Jun 2.1 21:49:58 10° W 21:53:35 45° SSW 21:57:10 10° ESE visible
22 Jun 3.3 23:28:33 10° W 23:31:08 18° SW 23:33:42 10° S visible
23 Jun 1.9 19:46:15 10° WSW 19:49:57 60° S 19:53:39 10° E visible
23 Jun 2.1 21:24:16 10° W 21:27:53 47° SSW 21:31:29 10° ESE visible
23 Jun 3.3 23:02:47 10° W 23:05:27 19° SW 23:08:06 10° S visible
24 Jun 1.9 19:20:32 10° WSW 19:24:14 59° S 19:27:56 10° E visible
24 Jun 2.1 20:58:33 10° W 21:02:10 48° SSW 21:05:47 10° ESE visible
24 Jun 3.3 22:37:01 10° W 22:39:45 19° SW 22:42:11 11° S visible
25 Jun 2.1 20:32:49 10° W 20:36:27 49° SSW 20:40:04 10° ESE visible
25 Jun 3.2 22:11:15 10° W 22:14:04 20° SW 22:15:43 15° S visible
26 Jun 2.1 20:07:05 10° W 20:10:44 50° SSW 20:14:21 10° ESE visible
26 Jun 3.2 21:45:28 10° W 21:48:21 21° SW 21:49:48 17° S visible
27 Jun 2.1 19:41:20 10° W 19:45:00 51° SSW 19:48:38 10° ESE visible
27 Jun 3.2 21:19:42 10° W 21:22:38 22° SSW 21:24:08 17° S visible
28 Jun 2.1 19:15:35 10° W 19:19:14 52° SSW 19:22:53 10° ESE visible
28 Jun 3.2 20:53:55 10° W 20:56:55 23° SSW 20:58:39 17° S visible
29 Jun 3.2 20:28:07 10° W 20:31:11 24° SSW 20:33:16 15° SSE visible
30 Jun 3.1 20:02:19 10° W 20:05:26 25° SSW 20:07:57 13° SSE visible
